Regional Weather Roundup
Issued by NWS

Home | Current Version | Previous Version | Text Only | Print | Product List | Glossary Off
Versions: 1 2 3 4 5 6 7 8 9 10 11 12 13 14 15 16 17 18 19 20 21 22 23 24 25 26 27 28 29 30 31 32 33 34 35 36 37 38 39 40 41 42 43 44 45 46 47 48 49 50

000
ASUS43 KMKX 271221
RWRWI

WISCONSIN REGIONAL WEATHER ROUNDUP
NATIONAL WEATHER SERVICE MILWAUKEE/SULLIVAN WI
700 AM CDT FRI MAY 27 2016

NOTE: "FAIR" INDICATES FEW OR NO CLOUDS BELOW 12,000 FEET WITH NO
SIGNIFICANT WEATHER AND/OR OBSTRUCTIONS TO VISIBILITY.

WIZ001-002-006>008-014>016-023>028-271300-
NORTHWEST WISCONSIN

CITY           SKY/WX    TMP DP  RH WIND       PRES   REMARKS
SUPERIOR ARPT  FOG       46  46 100 E3        29.86S VSB<1/4
6HR MIN TEMP:  45; 6HR MAX TEMP:  47;

ASHLAND        FOG       50  50 100 E3        29.88R VSB 1/2
6HR MIN TEMP:  44; 6HR MAX TEMP:  50;

HAYWARD        CLOUDY    54  52  93 CALM      29.86S
6HR MIN TEMP:  48; 6HR MAX TEMP:  54;

SIREN          CLOUDY    60  55  81 SE3       29.83S
6HR MIN TEMP:  53; 6HR MAX TEMP:  60;

CUMBERLAND     CLOUDY    59  55  88 CALM      29.85S
RICE LAKE      CLOUDY    60  56  86 CALM      29.88R
6HR MIN TEMP:  56; 6HR MAX TEMP:  60;

CHETEK         CLOUDY    59  57  94 E3        29.86R
6HR MIN TEMP:  54; 6HR MAX TEMP:  60;

LADYSMITH      CLOUDY    58  56  92 E6        29.87F
6HR MIN TEMP:  53; 6HR MAX TEMP:  59;

EAU CLAIRE     CLOUDY    61  58  90 CALM      29.84S
6HR MIN TEMP:  57; 6HR MAX TEMP:  62;

MENOMONIE      CLOUDY    62  58  87 E5        29.85R
6HR MIN TEMP:  60; 6HR MAX TEMP:  62; 6HR PCP:  0.02;

NEW RICHMOND   LGT RAIN  62  59  88 CALM      29.84R
6HR MIN TEMP:  59; 6HR MAX TEMP:  64; 6HR PCP:  0.08;

OSCEOLA        CLOUDY    64  58  80 CALM      29.84S
6HR MIN TEMP:  58; 6HR MAX TEMP:  65;

$$

WIZ003>005-009-010-017-018-271300-
NORTH CENTRAL WISCONSIN

CITY           SKY/WX    TMP DP  RH WIND       PRES   REMARKS
MANITOWISH WTR NOT AVBL
ARBOR VITAE    CLOUDY    57  55  95 CALM      29.90F
6HR MIN TEMP:  52; 6HR MAX TEMP:  60;

WOODRUFF       CLOUDY    57  55  95 CALM      29.90F
6HR MIN TEMP:  52; 6HR MAX TEMP:  60;

RHINELANDER    CLOUDY    56  55  97 CALM      29.91F
6HR MIN TEMP:  50; 6HR MAX TEMP:  61;

EAGLE RIVER      N/A     58  58 100 CALM      29.91S
LAND O LAKES   MOSUNNY   54  54 100 CALM      29.93R
6HR MIN TEMP:  49; 6HR MAX TEMP:  58;

PHILLIPS       MOSUNNY   54  54 100 CALM      29.88F
6HR MIN TEMP:  49; 6HR MAX TEMP:  60;

TOMAHAWK       CLOUDY    53  53  97 CALM      29.90F
6HR MIN TEMP:  48; 6HR MAX TEMP:  55;

MEDFORD        MOSUNNY   58  58 100 E3        29.87F
6HR MIN TEMP:  54; 6HR MAX TEMP:  58;

MERRILL        CLOUDY    53  53 100 CALM      29.90F
$$

WIZ029-030-035-036-043>047-271300-
CENTRAL WISCONSIN

CITY           SKY/WX    TMP DP  RH WIND       PRES   REMARKS
WAUSAU         SUNNY     61  58  90 E3        29.86F
6HR MIN TEMP:  56; 6HR MAX TEMP:  62;

MOSINEE        MOSUNNY   57  57 100 CALM      29.89S
MARSHFIELD     SUNNY     63  58  83 E6        29.86S
6HR MIN TEMP:  57; 6HR MAX TEMP:  63;

STEVENS POINT  PTSUNNY   60  58  94 CALM      29.89R
6HR MIN TEMP:  51; 6HR MAX TEMP:  60;

WAUPACA        MOSUNNY   63  62  98 CALM      29.89S
6HR MIN TEMP:  57; 6HR MAX TEMP:  63; 6HR PCP:  0.01;

WAUTOMA        CLOUDY    62  60  93 CALM      29.90R
6HR MIN TEMP:  55; 6HR MAX TEMP:  62;

WISC RAPIDS    PTSUNNY   62  58  86 CALM      29.88S
6HR MIN TEMP:  56; 6HR MAX TEMP:  62;

CAMP DOUGLAS   LGT RAIN  63  61  94 S7        29.89R
                                      6HR PCP:  0.01;

$$

WIZ011>013-019>022-031-037>040-048>050-271300-
NORTHEAST WISCONSIN

CITY           SKY/WX    TMP DP  RH WIND       PRES   REMARKS
ANTIGO         SUNNY     58  56  95 CALM      29.92R
6HR MIN TEMP:  51; 6HR MAX TEMP:  58;

SHAWANO        SUNNY     62  60  96 CALM      29.89S
OCONTO         MOSUNNY  N/A N/A N/A CALM      29.89R
STURGEON BAY   NOT AVBL
GREEN BAY      SUNNY     65  61  87 CALM      29.88R
6HR MIN TEMP:  58; 6HR MAX TEMP:  65;

MANITOWOC      SUNNY     57  53  86 CALM      29.89S
6HR MIN TEMP:  53; 6HR MAX TEMP:  59;

APPLETON       MOSUNNY   64  59  82 CALM      29.87S
CLINTONVILLE   SUNNY     59  59 100 CALM      29.89R
OSHKOSH        MOSUNNY   66  59  78 CALM      29.86F
6HR MIN TEMP:  57; 6HR MAX TEMP:  66;

$$

WIZ032>034-041-042-053>061-271300-
SOUTHWEST WISCONSIN

CITY           SKY/WX    TMP DP  RH WIND       PRES   REMARKS
LA CROSSE      LGT RAIN  65  62  90 S8        29.85R
6HR MIN TEMP:  64; 6HR MAX TEMP:  67; 6HR PCP:  0.01;

SPARTA         RAIN      62  61  96 SE3       29.87R
6HR MIN TEMP:  56; 6HR MAX TEMP:  62;

VIROQUA        CLOUDY    63  63  99 E6        29.84F
6HR MIN TEMP:  61; 6HR MAX TEMP:  65; 6HR PCP:  0.21;

BOSCOBEL       CLOUDY    65  63  93 E5        29.82F
6HR MIN TEMP:  63; 6HR MAX TEMP:  66; 6HR PCP:  0.33;

PRAIRIE DU CHI CLOUDY    64  63  96 CALM      29.81F
6HR MIN TEMP:  64; 6HR MAX TEMP:  69; 6HR PCP:  0.31;

PLATTEVILLE    CLOUDY    65  64  99 NE7       29.82S
6HR MIN TEMP:  64; 6HR MAX TEMP:  69; 6HR PCP:  0.32;

$$

WIZ056-057-062-063-064-067-068-271300-
SOUTH CENTRAL WISCONSIN

CITY           SKY/WX    TMP DP  RH WIND       PRES   REMARKS
REEDSBURG      LGT RAIN  61  61 100 W3        29.84F
6HR MIN TEMP:  58; 6HR MAX TEMP:  63; 6HR PCP:  0.20;

BARABOO/DELLS  CLOUDY    62  60  91 E3        29.86F
6HR MIN TEMP:  60; 6HR MAX TEMP:  63; 6HR PCP:  0.08;

LONE ROCK      CLOUDY    64  61  90 E6        29.84F
6HR MIN TEMP:  62; 6HR MAX TEMP:  65; 6HR PCP:  0.15;

MINERAL POINT  CLOUDY    64  63  94 NE8       29.83F
MADISON        PTSUNNY   66  62  87 SW7       29.85R
6HR MIN TEMP:  60; 6HR MAX TEMP:  67; 6HR PCP:  0.01;

MIDDLETON      CLOUDY    66  62  86 CALM      29.86S
6HR MIN TEMP:  60; 6HR MAX TEMP:  67; 6HR PCP:  0.09;

WATERTOWN      CLOUDY    67  66  97 S7        29.86R
6HR MIN TEMP:  59; 6HR MAX TEMP:  67;

MONROE         CLOUDY    63  61  94 N5        29.85R
JANESVILLE     CLOUDY    70  66  88 E3        29.84F
$$

WIZ051-052-058>065-066-070>072-271300-
SOUTHEAST WISCONSIN

CITY           SKY/WX    TMP DP  RH WIND       PRES   REMARKS
MILWAUKEE      PTSUNNY   70  66  87 S7        29.87R
6HR MIN TEMP:  65; 6HR MAX TEMP:  70;

WAUKESHA       PTSUNNY   66  64  94 S3        29.89R FOG
MILWAUKEE/TIMM MOSUNNY   64  59  82 CALM      29.87R
RACINE         SUNNY     69  64  84 CALM      29.88F
6HR MIN TEMP:  63; 6HR MAX TEMP:  69;

BURLINGTON     CLOUDY    66  64  95 CALM      29.87S
6HR MIN TEMP:  58; 6HR MAX TEMP:  66;

KENOSHA        SUNNY     71  67  87 S7        29.87S
6HR MIN TEMP:  65; 6HR MAX TEMP:  71;

FOND DU LAC    CLOUDY    67  61  81 N3        29.86F
6HR MIN TEMP:  57; 6HR MAX TEMP:  67;

SHEBOYGAN      MOSUNNY   66  60  81 N5        29.86F
6HR MIN TEMP:  55; 6HR MAX TEMP:  66;

WEST BEND      CLOUDY    63  61  94 CALM      29.87R
JUNEAU         CLOUDY    65  60  85 E7        29.86F
6HR MIN TEMP:  60; 6HR MAX TEMP:  66;

$$

LSZ147-162-271300-
LAKE SUPERIOR

STATION/POSITION TIME  TEMP    WIND        PRES    WAVE
                       AIR SEA DIR/SP/G            HT/PER
                 (UTC) (F)     (DEG/KT/KT) (MB)    (FT/S)
W MID LAKE BUOY  1150   40 38  170/  6/  8 1013.1R   1
DEVILS ISLAND    1200   45     360/  4/  5 1012.2S
SAXON HARBOR     1140   49     190/  2/  4 1011.5R
$$

LMZ867-665-643>646-271300-
LAKE MICHIGAN

STATION/POSITION TIME  TEMP    WIND        PRES    WAVE
                       AIR SEA DIR/SP/G            HT/PER
                 (UTC) (F)     (DEG/KT/KT) (MB)    (FT/S)
CHAMBERS ISLAND  1100   59     350/  1/  3 1012.2S
N MID LAKE BUOY  1150   47 45  150/  4/  6 1012.6R   1/ 4
NORTHPORT PIER   1100   52     140/  5/  9 1012.2S
SISTER BAY       1105   56        CALM       N/A
ALGOMA LAKESHORE 1147             CALM       N/A
KEWAUNEE LAKESHO 1100           90/  3/  3 1011.6R
SHEBOYGAN LAKC1F1C2F2C3F3C4F4C5F5C6F6C7F7C8M1C9M2Ca!



USA.gov is the U.S. government's official web portal to all federal, state and local government web resources and services.